Regional Weather Roundup
Issued by NWS

Home | Current Version | Previous Version | Text Only | Print | Product List | Glossary On
Versions: 1 2 3 4 5 6 7 8 9 10 11 12 13 14 15 16 17 18 19 20 21 22 23 24 25 26 27 28
000
ASUS43 KMPX 100210
RWRMN
WEATHER ROUNDUP FOR MINNESOTA
NATIONAL WEATHER SERVICE TWIN CITIES/CHANHASSEN MN
900 PM CDT SUN MAY 09 2021


NOTE: "FAIR" INDICATES FEW OR NO CLOUDS BELOW 12,000 FEET WITH NO
SIGNIFICANT WEATHER AND/OR OBSTRUCTIONS TO VISIBILITY. N/A MEANS
CURRENT SKY AND/OR WEATHER CONDITIONS ARE NOT AVAILABLE.

MNZ060>063-068>070-100300-
   Twin Cities Metro

CITY           SKY/WX    TMP DP  RH WIND       PRES   REMARKS
TWIN CITIES    PTCLDY    54  24  31 NE8G18    30.05R
ST PAUL        MOCLDY    55  25  31 NE9       30.06R
CRYSTAL        CLEAR     52  23  32 NE6       30.04R
BLAINE         PTCLDY    54  23  30 NE6       30.05R
LAKEVILLE      PTCLDY    54  23  30 N6        30.04R
EDEN PRAIRIE   CLOUDY    55  24  30 NE6       30.03R
SOUTH ST PAUL  PTCLDY    55  25  31 NE3       30.05R
$$
MNZ001>005-007-008-013>017-022>024-027-028-100300-
   Northwest Minnesota

CITY           SKY/WX    TMP DP  RH WIND       PRES   REMARKS
BEMIDJI        MOCLDY    43  23  44 NE9       30.14R
HALLOCK        CLOUDY    50  21  32 NE13      30.20R
ROSEAU           N/A     48 N/A N/A E9        30.22R
WARROAD        CLOUDY    45  28  53 NE10G16   30.22R
THIEF RVR FALL CLEAR     45  22  40 NE7       30.19R
CROOKSTON      PTCLDY    46  19  34 E9        30.18R
FOSSTON        CLEAR     43  19  39 NE8       30.16R
DETROIT LAKES  CLEAR     48  23  37 NE9G15    30.10R
MOORHEAD       PTCLDY    52  16  24 NE13      30.12R
PARK RAPIDS    PTCLDY    48  24  39 NE9       30.11R
MAHNOMEN       FAIR      45  24  44 NE10      30.14R
$$
MNZ006-009>011-018-025>026-100300-
   North Central Minnesota

CITY           SKY/WX    TMP DP  RH WIND       PRES   REMARKS
BAUDETTE       CLOUDY    43  24  47 NE9       30.21R
FLAG ISLAND    CLOUDY    43  21  42 E10       30.22R
INTL FALLS     CLOUDY    43  22  43 NE6       30.19R
WASKISH        CLOUDY    43  23  45 NE6       30.19R
BIG FORK       CLOUDY    43  21  42 NE6       30.21R
LONGVILLE      CLOUDY    46  23  39 NE7       30.12R
GRAND RAPIDS   CLOUDY    44  21  40 NE6       30.16R
CRANE LAKE     CLOUDY    41  23  48 NE5       30.21R
ORR            CLOUDY    41  18  38 CALM      30.16R
COOK           CLOUDY    41  19  42 CALM      30.17R
WALKER         CLOUDY    45  24  42 NE8       30.13R
$$
MNZ012-019>021-037-100300-
   Northeast Minnesota

CITY           SKY/WX    TMP DP  RH WIND       PRES   REMARKS
DULUTH         CLOUDY    40  26  57 E9        30.15R
ELY            CLOUDY    39  19  45 CALM      30.16R
HIBBING        CLOUDY    42  20  41 NE6       30.15R
EVELETH        CLOUDY    41  23  49 NE7       30.16S
DULUTH HARBOR  CLOUDY    41  32  70 NE13      30.18R
TWO HARBORS    CLOUDY    39  25  56 CALM      30.16R
SILVER BAY     CLOUDY    37  25  60 CALM      30.17R
GRAND MARAIS     N/A     38  31  76 W3        30.18R
G MARAIS ARPRT CLOUDY    32  25  74 CALM      30.14R
$$
MNZ029>031-032-039>041-046>048-054>057-064-100300-
   West Central Minnesota

CITY           SKY/WX    TMP DP  RH WIND       PRES   REMARKS
FERGUS FALLS   PTCLDY    52  25  35 N7        30.05R
WHEATON        PTCLDY    52  18  25 NW7       30.09R
MORRIS         PTCLDY    52   9  17 N8        30.06R
ALEXANDRIA     CLOUDY    52  23  32 NE10      30.06R
ELBOW LAKE     FAIR      53  27  35 N10       30.06R
WADENA         PTCLDY    48  28  46 NE9       30.08R
GLENWOOD       PTCLDY    50  25  37 NE8       30.05R
APPLETON       PTCLDY    55  18  22 N3        30.04R
BENSON         PTCLDY    50  19  29 NE3       30.05R
ORTONVILLE     PTCLDY    55  21  26 N9        30.05R
MADISON        MOCLDY    55  19  24 NW7       30.06R
WILLMAR        FAIR      55  19  24 CALM      30.07R
$$
MNZ033>034-036-042>043-049>051-058-059-100300-
   Central Minnesota

CITY           SKY/WX    TMP DP  RH WIND       PRES   REMARKS
ST CLOUD       PTCLDY    50  23  34 NE5       30.05R
SAUK CENTRE    FAIR      51  23  34 NE5       30.05R
PAYNESVILLE    MOCLDY    52  25  35 NE5       30.05R
AITKIN         PTCLDY    43  28  56 NE5       30.12R
PINE RIVER     CLOUDY    48  27  43 NE8       30.14R
BRAINERD       PTCLDY    48  25  40 NE7G18    30.10R
STAPLES        PTCLDY    52  23  32 NE7       30.09R
LONG PRAIRIE   FAIR      50  27  40 NE6       30.07R
LITTLE FALLS   PTCLDY    50  19  29 NE7       30.08R
CAMP RIPLEY    CLOUDY    51  24  36 NE10      30.09R
LITCHFIELD     PTCLDY    52  27  37 E5        30.05R
BUFFALO        CLEAR     52  23  33 MISG      30.06R
MAPLE LAKE     MOCLDY    51  29  43 E3        30.06R
HUTCHINSON     CLEAR     52  26  36 N3        30.05R
$$
MNZ037-044-045-052-053-100300-
   East Central Minnesota

CITY           SKY/WX    TMP DP  RH WIND       PRES   REMARKS
PRINCETON      CLOUDY    52  25  35 NE9       30.08R
MORA           MOCLDY    45  28  53 E6        30.12R
CAMBRIDGE      PTCLDY    52  30  43 NE6       30.09R
RUSH CITY      CLOUDY    47  27  44 NE9       30.10R
MOOSE LAKE     CLOUDY    41  28  60 NE7       30.13R
CLOQUET        CLOUDY    39  25  56 E9        30.13R
$$
MNZ071>073-080-081-089-090-097-098-100300-
   Southwest Minnesota

CITY           SKY/WX    TMP DP  RH WIND       PRES   REMARKS
MONTEVIDEO     MOCLDY    55  12  18 NE5       30.04R
GRANITE FALLS  MOCLDY    57  23  26 N6        30.05R
CANBY          MOCLDY    54  20  26 W6        30.06R
MARSHALL       CLOUDY    55  19  24 NW7       30.05R
REDWOOD FALLS  PTCLDY    55  21  26 CALM      30.02R
OLIVIA         PTCLDY    54  19  26 NE6       30.03R
PIPESTONE      CLOUDY    52  36  54 NW10      30.07R
WINDOM         MOCLDY    54  25  32 NW6       30.02S
WORTHINGTON    CLOUDY    53  32  44 W14       30.06R
JACKSON        CLOUDY    54  32  43 W13       30.04R
TRACY          CLOUDY    55  16  21 NW3       30.04R
SLAYTON        CLOUDY    53  28  36 W14       30.06R
$$
MNZ065>067-074>077-082>085-091>093-100300-
   South Central Minnesota

CITY           SKY/WX    TMP DP  RH WIND       PRES   REMARKS
MANKATO        PTCLDY    54  21  27 N10       30.03R
NEW ULM        PTCLDY    55  19  24 NE9       30.03R
ST JAMES       PTCLDY    54  19  26 N5        30.02R
FAIRMONT       MOCLDY    55  23  28 NW5       30.02R
GLENCOE        PTCLDY    52  22  31 N3        30.04R
FARIBAULT      CLEAR     54  25  32 N5        30.04R
OWATONNA       PTCLDY    52  25  35 N5        30.02R
WASECA         PTCLDY    52  25  35 N7        30.04R
ALBERT LEA     MOCLDY    54  23  30 N7        30.01S
$$
MNZ078>079-086>088-094>096-100300-
   Southeast Minnesota

CITY           SKY/WX    TMP DP  RH WIND       PRES   REMARKS
ROCHESTER      PTCLDY    51  24  34 N7        30.02R
RED WING       PTCLDY    54  23  30 NE12G17   30.04R
STANTON        PTCLDY    48  29  46 NE8       30.03R
DODGE CENTER   PTCLDY    52  21  30 N3        30.02R
WINONA         MOCLDY    54  32  43 N7        30.02R
AUSTIN         PTCLDY    54  25  32 N5        30.02R
PRESTON        PTCLDY    52  26  36 N7        30.02R
$$
ABBREVIATIONS USED IN REMARKS
   TC - TEMPERATURES IN CELSIUS
  WCI - WIND CHILL INDEX
   HX - HEAT INDEX
  VSB - VISIBILITY
$$



USA.gov is the U.S. government's official web portal to all federal, state and local government web resources and services.